DD6UBW Weather Reports


Display with metric or nautical units.
time (UTC)temp
F
wind
direction
speed
MPH
gust
MPH
rain 1hr
in
rain 24hr
in
rain mn
in
humidity
%
barometer
mb
20260507183001 49 270 0.0 0.0 0.00 0.00 0.00 81 1016.6
20260507180001 49 290 0.0 0.0 0.00 0.00 0.00 79 1015.6
20260507173001 50 105 0.0 0.0 0.00 0.00 0.00 78 1015.6
20260507170001 50 335 0.0 0.0 0.00 0.00 0.00 75 1015.6
20260507163000 51 90 0.0 0.0 0.00 0.00 0.00 75 1015.6
20260507160001 51 220 0.0 0.0 0.00 0.00 0.00 74 1015.6
20260507153001 51 150 2.0 0.0 0.00 0.00 0.00 73 1014.6
20260507150000 51 110 1.0 0.0 0.00 0.00 0.00 73 1014.6
20260507143001 52 150 1.0 0.0 0.00 0.00 0.00 73 1014.6
20260507140003 52 335 1.0 0.0 0.00 0.00 0.00 72 1014.6
20260507133000 51 95 1.0 0.0 0.00 0.00 0.00 73 1014.6
20260507130000 50 90 5.0 0.0 0.00 0.00 0.00 73 1014.6
20260507123001 50 65 3.0 0.0 0.00 0.00 0.00 75 1014.6
20260507120000 48 95 6.0 0.0 0.00 0.00 0.00 77 1014.6
20260507113001 48 75 8.0 0.0 0.00 0.00 0.00 78 1013.6
20260507110001 48 85 5.0 0.0 0.00 0.00 0.00 78 1013.6
20260507103000 48 60 4.0 0.0 0.00 0.00 0.00 78 1013.6
20260507100004 48 20 7.0 0.0 0.00 0.00 0.00 78 1013.6
20260507093002 48 35 8.0 0.0 0.00 0.00 0.00 78 1012.6
20260507090001 47 20 7.0 0.0 0.00 0.00 0.00 81 1012.6
20260507083000 47 125 6.0 0.0 0.00 0.00 0.00 80 1012.6
20260507080000 47 120 4.0 0.0 0.00 0.00 0.00 80 1011.6
20260507073001 46 160 7.0 0.0 0.00 0.00 0.00 81 1011.6
20260507063001 46 60 5.0 0.0 0.00 0.00 0.00 83 1011.6
20260507060001 46 60 2.0 0.0 0.00 0.00 0.00 84 1011.6
20260507053001 45 50 1.0 0.0 0.00 0.00 0.00 85 1010.6
20260507050001 45 65 4.0 0.0 0.00 0.00 0.00 84 1010.6
20260507043001 45 135 6.0 0.0 0.00 0.00 0.00 84 1010.6
20260507040000 45 130 3.0 0.0 0.00 0.00 0.00 84 1009.6
20260507033001 45 55 2.0 0.0 0.00 0.00 0.00 85 1009.6
20260507030002 45 85 4.0 0.0 0.00 0.00 0.00 85 1009.6
20260507023001 45 85 2.0 0.0 0.00 0.00 0.00 85 1009.6
20260507020001 45 65 4.0 0.0 0.00 0.00 0.00 85 1009.6
20260507013001 45 80 3.0 0.0 0.00 0.00 0.00 85 1009.6
20260507010000 45 60 1.0 0.0 0.00 0.00 0.00 85 1008.6
20260507003001 45 65 4.0 0.0 0.00 0.00 0.00 85 1008.6
20260507000000 45 45 6.0 0.0 0.00 0.00 0.00 85 1008.6
20260506233003 45 70 3.0 0.0 0.00 0.00 0.00 85 1008.6
20260506230001 46 75 4.0 0.0 0.00 0.00 0.00 86 1008.6
20260506223000 48 95 6.0 0.0 0.00 0.00 0.00 85 1008.6
20260506220001 49 35 6.0 0.0 0.00 0.00 0.91 84 1007.6
20260506213001 50 35 6.0 0.0 0.00 0.00 0.91 84 1007.6
20260506210000 51 75 1.0 0.0 0.00 0.00 0.91 84 1007.6
20260506203001 51 105 1.0 0.0 0.00 0.00 0.91 85 1007.6
20260506200001 51 110 4.0 0.0 0.00 0.00 0.91 86 1007.6
20260506193001 51 65 0.0 0.0 0.00 0.00 0.91 86 1007.6
20260506190000 51 85 3.0 0.0 0.00 0.00 0.91 86 1006.6